This demonstration page uses our WeatherBlox Daily Observations layout. Learn more.

Left ArrowRight Arrow

39.12711, -84.51439

Hourly Observations for September 13, 2021

Temp ( °F °C ) Dew Point ( °F °C ) Humidity (%) Winds ( mph kmh ) Pressure ( in mb ) Visibility ( mi km ) Precip ( " mm )
12:53 am 00:53 Clear 74 23.3 67 19.4 79 79 SW 7 11 30.14 1021 10 16 0.00 0.00
1:53 am 01:53 Clear 72 22.2 67 19.4 84 84 Calm 30.16 1021 10 16 0.00 0.00
2:53 am 02:53 Clear 71 21.7 67 19.4 87 87 S 5 7 30.16 1021 10 16 0.00 0.00
3:53 am 03:53 Clear 69 20.6 66 18.9 90 90 Calm 30.15 1021 10 16 0.00 0.00
4:53 am 04:53 Clear 67 19.4 65 18.3 93 93 Calm 30.16 1021 10 16 0.00 0.00
5:35 am 05:35 Mostly Clear 66 18.9 65 18.3 96 96 Calm 30.17 1022 9 14 0.00 0.00
5:53 am 05:53 Clear 65 18.3 65 18.3 100 100 Calm 30.16 1022 10 16 0.00 0.00
6:28 am 06:28 Mostly Clear with Mist and Fog 64 17.8 64 17.8 100 100 Calm 30.17 1022 3 5 0.00 0.00
6:53 am 06:53 Clear with Fog 65 18.3 65 18.3 100 100 Calm 30.17 1022 10 16 0.00 0.00
7:53 am 07:53 Sunny with Fog 65 18.3 64 17.8 97 97 SW 5 7 30.19 1023 10 16 0.00 0.00
8:53 am 08:53 Sunny 70 21.1 68 20 93 93 SSW 6 9 30.19 1023 10 16 0.00 0.00
9:53 am 09:53 Sunny 74 23.3 67 19.4 79 79 SSW 7 11 30.19 1022 10 16 0.00 0.00
10:53 am 10:53 Sunny 79 26.1 68 20 69 69 WSW 7 11 30.18 1022 10 16 0.00 0.00
11:53 am 11:53 Sunny 81 27.2 67 19.4 62 62 SW 13 20 30.15 1021 10 16 0.00 0.00
12:53 pm 12:53 Sunny 83 28.3 66 18.9 57 57 SW 12 19 30.14 1021 10 16 0.00 0.00
1:53 pm 13:53 Sunny 85 29.4 68 20 57 57 SSW 12 19 30.11 1020 10 16 0.00 0.00
2:53 pm 14:53 Sunny 86 30 68 20 55 55 SSW 14 22 30.10 1019 10 16 0.00 0.00
3:53 pm 15:53 Partly Cloudy 86 30 66 18.9 51 51 SSW 13 20 30.09 1019 10 16 0.00 0.00
4:53 pm 16:53 Partly Cloudy 86 30 66 18.9 51 51 SSW 13 20 30.08 1019 10 16 0.00 0.00
5:53 pm 17:53 Sunny 84 28.9 65 18.3 53 53 SSW 15 24 30.06 1018 10 16 0.00 0.00
6:53 pm 18:53 Sunny 82 27.8 65 18.3 56 56 S 12 19 30.05 1018 10 16 0.00 0.00
7:53 pm 19:53 Clear 75 23.9 67 19.4 76 76 S 6 9 30.05 1018 10 16 0.00 0.00
8:53 pm 20:53 Clear 74 23.3 66 18.9 76 76 SW 5 7 30.05 1018 10 16 0.00 0.00
9:53 pm 21:53 Clear 71 21.7 67 19.4 87 87 Calm 30.06 1018 10 16 0.00 0.00
10:53 pm 22:53 Clear 70 21.1 67 19.4 90 90 Calm 30.06 1018 10 16 0.00 0.00
11:53 pm 23:53 Clear 68 20 67 19.4 96 96 Calm 30.06 1018 10 16 0.00 0.00

Powered by AerisWeather